This demonstration page uses our WeatherBlox Daily Observations layout. Learn more.

Left ArrowRight Arrow

38.83388, -104.82136

Hourly Observations for December 31, 2020

Temp ( °F °C ) Dew Point ( °F °C ) Humidity (%) Winds ( mph kmh ) Pressure ( in mb ) Visibility ( mi km ) Precip ( " mm )
12:58 am 00:58 Mostly Cloudy 29 -1.5 8 -13.5 40 40 WNW 5 7 29.67 1005 10 16 0.00 0.00
1:58 am 01:58 Clear 31 -0.7 6 -14.3 35 35 WNW 8 13 29.65 1004 10 16 0.00 0.00
2:58 am 02:58 Clear 31 -0.6 6 -14.3 35 35 S 6 9 29.65 1004 10 16 0.00 0.00
3:58 am 03:58 Clear 34 1 4 -15.6 28 28 S 12 19 29.65 1004 10 16 0.00 0.00
4:58 am 04:58 Clear 30 -1.3 8 -13.2 40 40 Calm 29.67 1005 10 16 0.00 0.00
5:58 am 05:58 Clear 28 -2.3 7 -13.8 41 41 Calm 29.69 1005 10 16 0.00 0.00
6:58 am 06:58 Clear 28 -2.4 6 -14.2 40 40 Calm 29.67 1005 10 16 0.00 0.00
7:58 am 07:58 Sunny 30 -1.2 7 -13.7 38 38 S 3 6 29.69 1005 10 16 0.00 0.00
8:58 am 08:58 Sunny 36 2 8 -13.3 32 32 SSE 7 11 29.67 1005 10 16 0.00 0.00
9:58 am 09:58 Sunny 45 7 9 -12.8 23 23 NNE 5 7 29.62 1003 10 16 0.00 0.00
10:58 am 10:58 Sunny 47 8.6 8 -13.5 20 20 NNE 5 7 29.58 1002 10 16 0.00 0.00
11:58 am 11:58 Sunny 47 8.5 8 -13.6 20 20 ENE 3 6 29.54 1000 10 16 0.00 0.00
12:58 pm 12:58 Sunny 46 8 10 -12.3 22 22 NE 6 9 29.54 1000 10 16 0.00 0.00
1:58 pm 13:58 Sunny 46 7.6 12 -11.3 25 25 N 5 7 29.53 1000 10 16 0.00 0.00
2:58 pm 14:58 Sunny 36 2 11 -11.8 36 36 WNW 7 11 29.60 1002 10 16 0.00 0.00
3:58 pm 15:58 Sunny 36 2.1 8 -13.1 32 32 NW 10 17 29.59 1002 10 16 0.00 0.00
4:58 pm 16:58 Cloudy 36 2 13 -10.7 39 39 Calm 29.65 1004 10 16 0.00 0.00
5:58 pm 17:58 Cloudy 33 0.4 8 -13.4 35 35 NW 7 11 29.71 1006 10 16 0.00 0.00
6:58 pm 18:58 Cloudy 33 0.3 11 -11.5 41 41 Calm 29.73 1007 10 16 0.00 0.00
7:58 pm 19:58 Cloudy 30 -1 13 -10.3 50 50 N 8 13 29.73 1007 10 16 0.00 0.00
8:58 pm 20:58 Mostly Cloudy 32 0 13 -10.7 45 45 NNW 12 19 29.71 1006 10 16 0.00 0.00
9:58 pm 21:58 Mostly Clear 31 -0.7 9 -12.6 40 40 NNW 15 24 29.67 1005 10 16 0.00 0.00
10:58 pm 22:58 Clear 32 -0.1 4 -15.5 31 31 NW 18 30 29.65 1004 10 16 0.00 0.00
11:58 pm 23:58 Clear 31 -0.5 6 -14.7 34 34 NNW 14 22 29.65 1004 10 16 0.00 0.00

Powered by AerisWeather